Lake Guntersville Weather Center

Moon Phase Calendar



Lake Guntersville Water Level
Online Cameras

 


      

Current Conditions in Guntersville
2/25/2024 6:32:41 AM

32°F
Feels Like 29
Clear
Humidity
91%
Pressure
30.09"
Wind
3.6 mph (ESE)
Dew Point
30°F
UV Index
0/10 (Low)
Visibility
6 mi

Hourly Forecast

Date & Time Sun, Feb 25
6:00 AM
Sun, Feb 25
7:00 AM
Sun, Feb 25
8:00 AM
Sun, Feb 25
9:00 AM
Sun, Feb 25
10:00 AM
Sun, Feb 25
11:00 AM
Sun, Feb 25
12:00 PM
Sun, Feb 25
1:00 PM
Sun, Feb 25
2:00 PM
Sun, Feb 25
3:00 PM
Sun, Feb 25
4:00 PM
Sun, Feb 25
5:00 PM
Sun, Feb 25
6:00 PM
Sun, Feb 25
7:00 PM
Sun, Feb 25
8:00 PM
Sun, Feb 25
9:00 PM
Sun, Feb 25
10:00 PM
Sun, Feb 25
11:00 PM
Mon, Feb 26
12:00 AM
Mon, Feb 26
1:00 AM
Mon, Feb 26
2:00 AM
Mon, Feb 26
3:00 AM
Mon, Feb 26
4:00 AM
Mon, Feb 26
5:00 AM
Mon, Feb 26
6:00 AM
Mon, Feb 26
7:00 AM
Mon, Feb 26
8:00 AM
Mon, Feb 26
9:00 AM
Mon, Feb 26
10:00 AM
Mon, Feb 26
11:00 AM
Mon, Feb 26
12:00 PM
Mon, Feb 26
1:00 PM
Mon, Feb 26
2:00 PM
Mon, Feb 26
3:00 PM
Mon, Feb 26
4:00 PM
Mon, Feb 26
5:00 PM
Mon, Feb 26
6:00 PM
Mon, Feb 26
7:00 PM
Mon, Feb 26
8:00 PM
Mon, Feb 26
9:00 PM
Mon, Feb 26
10:00 PM
Mon, Feb 26
11:00 PM
Tue, Feb 27
12:00 AM
Tue, Feb 27
1:00 AM
Tue, Feb 27
2:00 AM
Tue, Feb 27
3:00 AM
Tue, Feb 27
4:00 AM
Tue, Feb 27
5:00 AM
Condition
Clear

Clear

Clear

Clear

Clouds

Clouds

Clouds

Clouds

Clouds

Clouds

Clouds

Clouds

Clouds

Clouds

Clouds

Clouds

Clouds

Clouds

Clouds

Clouds

Clouds

Clouds

Clouds

Clouds

Clouds

Clear

Clear

Clouds

Clouds

Clouds

Clouds

Clouds

Clouds

Clouds

Clouds

Clouds

Clouds

Clouds

Clouds

Clouds

Clouds

Clouds

Clouds

Clouds

Clouds

Clouds

Clouds

Clouds
Temperature 33°F32°F34°F38°F43°F50°F58°F60°F62°F62°F61°F57°F52°F51°F50°F49°F49°F48°F48°F47°F47°F46°F46°F45°F45°F46°F52°F57°F61°F63°F67°F68°F67°F66°F67°F64°F61°F59°F59°F60°F59°F58°F58°F57°F58°F58°F59°F59°F
Feels Like 33°F29°F31°F35°F40°F48°F55°F58°F60°F60°F59°F55°F50°F49°F48°F47°F47°F47°F46°F45°F45°F44°F44°F44°F43°F45°F51°F56°F60°F62°F66°F67°F65°F65°F66°F63°F60°F58°F58°F59°F59°F58°F57°F57°F58°F58°F59°F59°F
Cloudiness 0%0%0%0%15%32%50%100%68%56%57%57%64%100%100%100%94%95%96%94%87%58%44%35%32%9%9%38%46%55%47%29%64%76%81%83%85%92%90%89%89%91%93%100%100%100%100%98%
Visibility 6 mi6 mi6 mi6 mi6 mi6 mi6 mi6 mi6 mi6 mi6 mi6 mi6 mi6 mi6 mi6 mi6 mi6 mi6 mi6 mi6 mi6 mi6 mi6 mi6 mi6 mi6 mi6 mi6 mi6 mi6 mi6 mi6 mi6 mi6 mi6 mi6 mi6 mi6 mi6 mi6 mi6 mi6 mi6 mi6 mi6 mi6 mi6 mi
Precipitation 0%0%0%0%0%0%0%0%0%0%0%0%0%0%0%0%0%0%0%0%0%0%0%0%0%0%0%0%0%0%0%0%0%0%0%0%0%0%0%0%0%0%3%43%43%43%35%35%
Humidity 88%91%85%75%64%53%42%41%41%42%49%58%69%72%73%73%73%74%75%75%78%81%82%83%85%84%72%63%56%53%48%49%54%56%57%62%67%70%72%70%74%79%83%87%89%91%89%88%
Dew Point 30°F30°F30°F31°F32°F34°F34°F36°F37°F38°F41°F42°F41°F41°F41°F40°F40°F40°F39°F39°F39°F40°F40°F40°F40°F41°F43°F44°F45°F45°F46°F47°F49°F50°F51°F50°F49°F49°F49°F50°F50°F51°F52°F53°F54°F55°F55°F55°F
Pressure 30.12"30.09"30.12"30.15"30.15"30.15"30.15"30.12"30.09"30.06"30.06"30.06"30.06"30.09"30.09"30.09"30.09"30.12"30.12"30.12"30.09"30.09"30.09"30.09"30.09"30.12"30.12"30.09"30.09"30.06"30.03"30"29.97"29.94"29.94"29.94"29.94"29.94"29.94"29.94"29.94"29.94"29.94"29.94"29.91"29.91"29.88"29.88"
Wind Speed 3 mph3.6 mph3.8 mph4.4 mph5.4 mph6.3 mph6.9 mph8.5 mph9.3 mph10.2 mph9.2 mph7.4 mph5.7 mph5.6 mph5.5 mph4.8 mph4.4 mph4 mph3.9 mph4.3 mph4.3 mph4.1 mph4.2 mph3.7 mph4.3 mph4 mph6.4 mph9.2 mph10.2 mph11.2 mph12 mph11.9 mph9.5 mph9 mph10.4 mph10 mph8.6 mph7.9 mph9.1 mph10.7 mph11.2 mph11.2 mph11 mph10.9 mph12.2 mph10.9 mph12.1 mph11.7 mph
Wind
Direction
118°
ESE
119°
ESE
130°
SE
146°
SE
162°
SSE
173°
S
182°
S
192°
SSW
204°
SSW
202°
SSW
194°
SSW
186°
S
171°
S
169°
S
165°
SSE
162°
SSE
159°
SSE
162°
SSE
168°
SSE
166°
SSE
161°
SSE
166°
SSE
165°
SSE
163°
SSE
164°
SSE
159°
SSE
190°
S
205°
SSW
210°
SSW
210°
SSW
213°
SSW
207°
SSW
198°
SSW
188°
S
184°
S
183°
S
172°
S
165°
SSE
165°
SSE
175°
S
179°
S
179°
S
179°
S
182°
S
189°
S
193°
SSW
186°
S
192°
SSW

Daily Forecast

Date High Low Precip. Humidity
Today
Feb 25

Clouds
62 °F
32 °F
0%
53%
Monday
Feb 26

Clouds
68 °F
45 °F
0%
53%
Tuesday
Feb 27

Clouds
72 °F
57 °F
43%
79%
Wednesday
Feb 28

Rain
69 °F
39 °F
100%
80%
Thursday
Feb 29

Rain
52 °F
36 °F
84%
42%
Friday
Mar 1

Rain
46 °F
42 °F
100%
93%
Saturday
Mar 2

Clouds
64 °F
45 °F
0%
71%
Sunday
Mar 3

Clear
67 °F
49 °F
0%
49%
Monday
Mar 4

Clear
65 °F
48 °F
0%
51%
Tuesday
Mar 5

Rain
63 °F
48 °F
100%
60%
Wednesday
Mar 6

Rain
67 °F
47 °F
96%
73%
Thursday
Mar 7

Clouds
57 °F
38 °F
0%
48%
Friday
Mar 8

Clouds
52 °F
39 °F
0%
47%
Saturday
Mar 9

Clear
56 °F
32 °F
0%
35%
Sunday
Mar 10

Rain
51 °F
41 °F
100%
81%
Monday
Mar 11

Rain
59 °F
43 °F
52%
50%

Temperature 8-14 Day Outlook



Precipitation 8-14 Day Outlook




Quick Links
Lake Guntersville News
Lake Guntersville Photos
Lake Guntersville Videos




About Us
Contact Us
Site Map
Search Site
Advertise With Us
   
www.LakeGuntersville.info
THE LAKE GUNTERSVILLE WEBSITE

Copyright 2024, Lakes Online
Privacy    |    Legal